User: anonymous   Login
Location: Melbourne
(37.8170°S, 144.9670°E)
Time: 16:45:57
(UTC+10:00)
Language:

Aureole 2 Rocket - Orbit

View from above orbital plane
View from above orbital plane
View from above satellite
View from above satellite

Ground track
Ground track

The orbit data is extracted from the following two-line orbital elements,

1  7004U 73107B   17113.73100010 +.00022332 +00000-0 +34347-3 0  9990
2  7004 073.9356 181.4559 0178545 064.7405 297.2184 15.37924554228858
Epoch (UTC): 23 April 2017 17:32:38
Eccentricity: 0.0178545
inclination: 73.9356°
perigee height: 330 km
apogee height: 574 km
right ascension of ascending node: 181.4559°
argument of perigee: 64.7405°
revolutions per day: 15.37924554
mean anomaly at epoch: 297.2184°
orbit number at epoch: 22885

The dashed part of the orbit path shows where the satellite is in the earth's shadow,  

DLR